Location: Zagreb
(45.8000°N, 16.0000°E)
Time: 19:47:20
(UTC+01:00)

CUTE-I - Pass Details

Date: 08 November 2020
Orbit: 811 x 824 km, 98.7° (Epoch: 01 December)

Event Time Altitude Azimuth Distance (km) Brightness Sun altitude
Rises 05:19:36 0° 25° (NNE) 3,362 ? -15.3°
Reaches altitude 10° 05:22:24 10° 39° (NE) 2,426 ? -14.9°
Maximum altitude 05:26:43 24° 93° (E) 1,637 ? -14.1°
Drops below altitude 10° 05:31:00 10° 147° (SSE) 2,417 ? -13.4°
Sets 05:33:47 0° 160° (SSE) 3,345 ? -12.9°
